Flag for Germany Weather past 2 weeks in Delbrück, North Rhine-Westphalia, Germany

Now
64 °F

Sunny.


Feels Like: 64 °F
Forecast: 52 / 71 °F
Wind: 6 mph from East

Location: Paderborn / Lippstadt

Current Time: Oct 2, 2014 at 5:25:50 PM

Latest Report: Oct 2, 2014 at 4:50 PM


Visibility: 10 mi

Pressure: 30.36 "Hg

Humidity: 73%

Dew point: 55 °F

Location of DelbrückLocation

Historic Weather in Delbrück — Graph

°F

Delbrück temperature yesterday

Maximum temperature yesterday: 66 °F (at 1:50 PM)
Minimum temperature yesterday: 52 °F (at 3:20 AM)
Average temperature yesterday: 58 °F

Past Weeks' High & Low Weather Summary

 TemperatureHumidityPressure
High73 °F (Sep 17, 4:20 PM)100% (Sep 18, 3:20 AM)30.42 "Hg (Sep 18, 3:20 AM)
Low43 °F (Sep 24, 7:20 AM)47% (Sep 29, 2:20 PM)29.83 "Hg (Sep 24, 5:20 PM)
Average58 °F83%30.12 "Hg
* Reported Sep 17 4:20 PM — Oct 2 4:20 PM, Delbrück, Weather by CustomWeather, © 2014

Note: Actual official high and low records may vary slightly from our data, if they occured in-between our weather recording intervals... More about our weather records

Advertising

Delbrück weather history for previous 24 hours

 ConditionsComfort  
Time TempWeatherWind HumidityBarometerVisibility
4:20 PM
Oct 2
66 °FSunny.7 mph68%30.36 "Hg10 mi
3:50 PM66 °FPassing clouds.3 mph68%30.39 "HgN/A
3:20 PM66 °FPassing clouds.3 mph64%30.39 "HgN/A
2:50 PM66 °FPassing clouds.5 mph64%30.39 "HgN/A
2:20 PM66 °FPassing clouds.2 mph64%30.39 "HgN/A
1:50 PM64 °FPassing clouds.2 mph68%30.39 "HgN/A
1:20 PM63 °FPassing clouds.3 mph77%30.39 "HgN/A
12:50 PM66 °FSunny.1 mph64%30.39 "Hg10 mi
12:20 PM64 °FPartly sunny.2 mph68%30.42 "HgN/A
11:50 AM64 °FPartly sunny.1 mph68%30.42 "Hg6 mi
11:20 AM63 °FPartly sunny.2 mph77%30.42 "Hg6 mi
10:50 AM61 °FPartly sunny.1 mph88%30.42 "Hg6 mi
10:20 AM61 °FPartly sunny.5 mph83%30.42 "Hg6 mi
9:50 AM59 °FPartly sunny.2 mph88%30.42 "Hg6 mi
9:20 AM59 °FPassing clouds.2 mph88%30.39 "Hg5 mi
8:50 AM55 °FPassing clouds.2 mph94%30.39 "Hg5 mi
8:20 AM50 °FClear.10 mph100%30.39 "Hg5 mi
7:50 AM50 °FPassing clouds.9 mph100%30.39 "Hg5 mi
7:20 AM50 °FClear.7 mph94%30.39 "Hg5 mi
6:50 AM50 °FPassing clouds.1 mph100%30.39 "HgN/A
6:20 AM52 °FClear.8 mph94%30.39 "Hg10 mi
5:50 AM50 °FClear.6 mph100%30.39 "Hg5 mi
5:20 AM52 °FPassing clouds.3 mph94%30.39 "HgN/A
4:50 AM52 °FClear.2 mph94%30.39 "Hg10 mi
4:20 AM52 °FClear.1 mph100%30.39 "Hg10 mi
3:50 AM52 °FClear.2 mph94%30.39 "Hg10 mi
11:50 PM
Oct 1
52 °FClear.7 mph100%30.36 "Hg5 mi
11:20 PM54 °FClear.1 mph94%30.36 "Hg10 mi
10:50 PM54 °FPassing clouds.3 mph94%30.36 "HgN/A
10:20 PM54 °FClear.3 mph100%30.36 "Hg10 mi
9:50 PM54 °FClear.2 mph100%30.36 "Hg10 mi
9:20 PM55 °FClear.2 mph94%30.36 "Hg10 mi
8:50 PM55 °FClear.3 mph94%30.36 "Hg10 mi
8:20 PM57 °FClear.3 mph88%30.33 "Hg10 mi
7:50 PM57 °FSunny.3 mph82%30.33 "Hg10 mi
7:20 PM57 °FSunny.1 mph82%30.33 "Hg10 mi
6:50 PM61 °FSunny.2 mph72%30.33 "Hg10 mi
6:20 PM63 °FPassing clouds.5 mph68%30.33 "HgN/A
5:50 PM64 °FPassing clouds.6 mph64%30.33 "HgN/A
5:20 PM64 °FPassing clouds.7 mph64%30.30 "HgN/A
Weather by CustomWeather, © 2014

See weather overviewHow to use our weather pages